Weather History for Gwinn, MI

Change the Weather History Date:

Friday, March 23, 2012

  Actual Average (KESC) Record (KESC)
Temperature  
Mean Temperature 49 °F -  
Max Temperature 55 °F 38 °F 52 °F (1987)
Min Temperature 43 °F 20 °F 0 °F (1974)
Degree Days  
Heating Degree Days 16    
Moisture  
Dew Point 46 °F    
Average Humidity 91    
Maximum Humidity 94    
Minimum Humidity 84    
Precipitation  
Precipitation 0.00 in - - ()
Sea Level Pressure  
Sea Level Pressure 30.05 in    
Wind  
Wind Speed 1 mph (SE)    
Max Wind Speed 12 mph    
Max Gust Speed -    
Visibility 9 miles    
Events Rain    
Averages and records for this station are not official NWS values.
T = Trace of Precipitation, MM = Missing Value Source: NWS Daily Summary

Daily Weather History Graph

Daily Weather History Graph

Search for Another Location

Airport:

Trip Planner

Search our weather history database for the weather conditions in past years. The results will help you decide how hot, cold, wet, or windy it might be!

Date:

Astronomy

Mar. 23, 2012 Rise Set
Actual Time 7:45 AM EDT 8:06 PM EDT
Civil Twilight 7:15 AM EDT 8:37 PM EDT
Nautical Twilight 6:40 AM EDT 9:12 PM EDT
Astronomical Twilight 6:03 AM EDT 9:49 PM EDT
Moon 7:47 AM EDT (3/23) 9:37 PM EDT (3/23)
Length of Visible Light 13h 21m
Length of Day
12h 21m
New Moon, 1% of the Moon is Illuminated
Mar 23
New Moon
Mar 30
First Quarter
Apr 6
Full
Apr 13
Last Quarter
Apr 21
New

Hourly Weather History & Observations

Time (EDT) Temp. Dew Point Humidity Pressure Visibility Wind Dir Wind Speed Gust Speed Precip Events Conditions
12:17 AM 44.8 °F 42.6 °F 92% 30.15 in 10.0 mi Calm Calm - N/A   Clear
12:37 AM 44.6 °F 42.6 °F 93% 30.14 in 10.0 mi Calm Calm - N/A   Scattered Clouds
12:56 AM 44.2 °F 42.3 °F 93% 30.13 in 10.0 mi Calm Calm - N/A   Scattered Clouds
1:17 AM 44.6 °F 42.8 °F 93% 30.13 in 10.0 mi Calm Calm - N/A   Clear
1:37 AM 44.2 °F 42.4 °F 93% 30.13 in 7.0 mi Calm Calm - N/A   Clear
1:56 AM 45.0 °F 43.2 °F 93% 30.12 in 7.0 mi Calm Calm - N/A   Clear
2:17 AM 44.8 °F 43.0 °F 93% 30.11 in 7.0 mi Calm Calm - N/A   Clear
2:36 AM 43.7 °F 41.9 °F 93% 30.11 in 10.0 mi Calm Calm - N/A   Mostly Cloudy
2:57 AM 45.0 °F 43.3 °F 94% 30.11 in 10.0 mi Calm Calm - N/A   Overcast
3:16 AM 47.7 °F 46.0 °F 94% 30.11 in 10.0 mi Calm Calm - N/A   Overcast
3:36 AM 48.2 °F 46.4 °F 93% 30.10 in 10.0 mi Calm Calm - N/A   Overcast
3:57 AM 47.7 °F 45.5 °F 92% 30.10 in 10.0 mi Calm Calm - N/A   Overcast
4:16 AM 47.3 °F 45.1 °F 92% 30.10 in 10.0 mi Calm Calm - N/A   Overcast
4:37 AM 47.3 °F 45.5 °F 93% 30.09 in 10.0 mi Calm Calm - N/A   Overcast
4:57 AM 47.3 °F 45.5 °F 93% 30.09 in 10.0 mi Calm Calm - N/A   Mostly Cloudy
5:16 AM 46.6 °F 44.6 °F 93% 30.09 in 7.0 mi Calm Calm - N/A   Mostly Cloudy
5:37 AM 48.0 °F 46.2 °F 93% 30.09 in 10.0 mi Calm Calm - N/A   Overcast
5:57 AM 48.2 °F 46.4 °F 93% 30.09 in 10.0 mi Calm Calm - N/A   Overcast
6:50 AM 48.2 °F 46.4 °F 93% 30.09 in 10.0 mi Calm Calm - N/A   Overcast
7:20 AM 50.0 °F 46.4 °F 87% 30.08 in 10.0 mi Calm Calm - N/A   Mostly Cloudy
7:50 AM 50.0 °F 46.4 °F 87% 30.08 in 10.0 mi Calm Calm - N/A   Overcast
8:15 AM 50.0 °F 46.4 °F 87% 30.07 in 10.0 mi Calm Calm - N/A   Overcast
8:50 AM 50.0 °F 46.4 °F 87% 30.07 in 10.0 mi Calm Calm - N/A   Overcast
9:50 AM 50.0 °F 48.2 °F 94% 30.07 in 7.0 mi SSE 5.8 mph - N/A   Overcast
10:50 AM 51.8 °F 50.0 °F 94% 30.07 in 7.0 mi Calm Calm - N/A   Overcast
11:50 AM 53.6 °F 50.0 °F 88% 30.07 in 10.0 mi SSE 6.9 mph - N/A Rain Light Rain
12:50 PM 53.6 °F 51.8 °F 94% 30.05 in 10.0 mi SE 11.5 mph - N/A   Overcast
1:50 PM 55.4 °F 51.8 °F 88% 30.03 in 10.0 mi South 8.1 mph - N/A   Overcast
2:50 PM 55.4 °F 51.8 °F 88% 30.01 in 10.0 mi SSE 9.2 mph - N/A   Overcast
3:50 PM 55.4 °F 51.8 °F 88% 29.99 in 10.0 mi SE 8.1 mph - N/A   Overcast
4:50 PM 53.6 °F 50.0 °F 88% 29.97 in 10.0 mi SE 5.8 mph - N/A   Overcast
5:50 PM 55.4 °F 51.8 °F 88% 29.96 in 10.0 mi Calm Calm - N/A   Overcast
6:55 PM 53.6 °F 50.0 °F 88% 29.97 in 10.0 mi SSE 5.8 mph - N/A   Overcast
7:55 PM 51.8 °F 50.0 °F 94% 29.96 in 10.0 mi ESE 4.6 mph - N/A   Overcast
8:55 PM 50.0 °F 48.2 °F 94% 29.98 in 4.0 mi ESE 8.1 mph - N/A   Overcast
9:50 PM 48.2 °F 46.4 °F 93% 29.98 in 5.0 mi SE 8.1 mph - N/A   Overcast
10:16 PM 48.0 °F 45.0 °F 89% 29.97 in 7.0 mi SE 5.8 mph - N/A   Overcast
10:37 PM 48.2 °F 44.6 °F 87% 29.97 in 10.0 mi SE 6.9 mph - N/A   Overcast
10:56 PM 48.2 °F 44.6 °F 87% 29.96 in 10.0 mi Calm Calm - N/A   Overcast
11:17 PM 48.4 °F 44.6 °F 87% 29.96 in 10.0 mi Calm Calm - N/A   Overcast
11:37 PM 48.7 °F 44.6 °F 86% 29.96 in 10.0 mi ESE 3.5 mph - N/A   Overcast
11:56 PM 48.7 °F 44.1 °F 84% 29.96 in 10.0 mi ESE 3.5 mph - N/A   Overcast